This demonstration page uses our WeatherBlox Daily Observations layout. Learn more.

Left ArrowRight Arrow

38.88101, -77.10428

Hourly Observations for September 13, 2022

Temp ( °F °C ) Dew Point ( °F °C ) Humidity (%) Winds ( mph kmh ) Pressure ( in mb ) Visibility ( mi km ) Precip ( " mm )
12:52 am 00:52 Cloudy 73 22.8 69 20.6 87 87 Calm 29.80 1009 10 16 0.00 0.00
1:52 am 01:52 Mostly Cloudy 73 22.8 69 20.6 87 87 Calm 29.79 1009 10 16 0.00 0.00
2:52 am 02:52 Cloudy with Light Rain 73 22.8 67 19.4 81 81 WNW 7 11 29.78 1008 10 16 0.01 0.13
3:52 am 03:52 Mostly Cloudy 73 22.8 66 18.9 79 79 Calm 29.78 1008 10 16 0.01 0.13
4:52 am 04:52 Mostly Cloudy 71 21.7 67 19.4 87 87 NW 6 9 29.77 1008 10 16 0.00 0.00
5:52 am 05:52 Mostly Cloudy 71 21.7 67 19.4 87 87 NW 8 13 29.78 1008 10 16 0.00 0.00
6:52 am 06:52 Mostly Cloudy 72 22.2 66 18.9 82 82 NW 10 17 29.80 1009 10 16 0.00 0.00
7:52 am 07:52 Mostly Cloudy 72 22.2 64 17.8 76 76 NW 13 20 29.82 1010 10 16 0.00 0.00
8:52 am 08:52 Mostly Cloudy 72 22.2 64 17.8 76 76 NW 13 20 29.83 1010 10 16 0.00 0.00
9:52 am 09:52 Mostly Cloudy 74 23.3 60 15.6 62 62 NNW 13 20 29.84 1011 10 16 0.00 0.00
10:52 am 10:52 Mostly Cloudy 74 23.3 58 14.4 57 57 NNW 14 22 29.85 1011 10 16 0.00 0.00
11:52 am 11:52 Partly Cloudy 77 25 58 14.4 52 52 NW 9 15 29.85 1011 10 16 0.00 0.00
12:52 pm 12:52 Mostly Cloudy 79 26.1 59 15 50 50 NNW 9 15 29.84 1011 10 16 0.00 0.00
1:52 pm 13:52 Partly Cloudy 80 26.7 57 13.9 45 45 VRB 5 7 29.83 1010 10 16 0.00 0.00
2:52 pm 14:52 Partly Cloudy 82 27.8 58 14.4 44 44 W 12 19 29.81 1010 10 16 0.00 0.00
3:52 pm 15:52 Partly Cloudy 82 27.8 56 13.3 41 41 W 14 22 29.80 1009 10 16 0.00 0.00
4:52 pm 16:52 Partly Cloudy 82 27.8 55 12.8 40 40 W 9 15 29.80 1009 10 16 0.00 0.00
5:52 pm 17:52 Mostly Sunny 81 27.2 52 11.1 37 37 W 10 17 29.82 1010 10 16 0.00 0.00
6:52 pm 18:52 Mostly Sunny 79 26.1 52 11.1 39 39 W 9 15 29.83 1010 10 16 0.00 0.00
7:52 pm 19:52 Mostly Clear 75 23.9 54 12.2 48 48 WSW 5 7 29.85 1011 10 16 0.00 0.00
8:52 pm 20:52 Cloudy 76 24.4 55 12.8 48 48 WNW 7 11 29.88 1012 10 16 0.00 0.00
9:52 pm 21:52 Mostly Cloudy 73 22.8 53 11.7 50 50 NW 16 26 29.90 1012 10 16 0.00 0.00
10:52 pm 22:52 Mostly Cloudy 72 22.2 52 11.1 49 49 WNW 10 17 29.91 1013 10 16 0.00 0.00
11:52 pm 23:52 Mostly Cloudy 68 20 54 12.2 61 61 N 8 13 29.93 1014 10 16 0.00 0.00

Powered by AerisWeather